This is the latest recevied weather packets stored in our database for station/object HB9FHL-13. If no packets are shown the sender has not sent any weather packets the latest 1 day(s).
| Time | Temp. | Humidity | Pressure | Rain* | Wind** | Luminosity | Snow |
|---|---|---|---|---|---|---|---|
| 1777952112 | 11.67° C | - | 1008.7 hPa | 0 mm | 0.45 m/s, 231° | - | - |
| 1777951812 | 11.11° C | - | 1009.4 hPa | 0 mm | 0 m/s | - | - |
| 1777951511 | 11.11° C | - | 1009.8 hPa | 0 mm | 0 m/s | - | - |
| 1777951210 | 11.67° C | - | 1011.6 hPa | 0 mm | 0 m/s | - | - |
| 1777950910 | 11.67° C | - | 1009.8 hPa | 0 mm | 0 m/s | - | - |
| 1777950608 | 11.11° C | - | 1009.6 hPa | 0 mm | 0 m/s | - | - |
| 1777950307 | 11.11° C | - | 1012.8 hPa | 0 mm | 0 m/s | - | - |
| 1777950007 | 11.11° C | - | 1010.6 hPa | 0 mm | 0 m/s | - | - |
| 1777949707 | 11.11° C | - | 1010.4 hPa | 0 mm | 0 m/s | - | - |
| 1777949405 | 10.56° C | - | 1010 hPa | 0 mm | 0 m/s | - | - |
| 1777949104 | 11.11° C | - | 1008.6 hPa | 0 mm | 0 m/s | - | - |
| 1777948803 | 11.11° C | - | 1009.7 hPa | 0 mm | 0 m/s | - | - |
| 1777948503 | 11.11° C | - | 1011.3 hPa | 0 mm | 0 m/s | - | - |
| 1777947902 | 11.11° C | - | 1011.4 hPa | 0 mm | 0.45 m/s, 228° | - | - |
| 1777947601 | 11.11° C | - | 1013.8 hPa | 0 mm | 0 m/s | - | - |
| 1777947301 | 11.67° C | - | 1010.9 hPa | 0 mm | 0 m/s | - | - |
| 1777947000 | 10.56° C | - | 1010.5 hPa | 0 mm | 0.45 m/s, 224° | - | - |
| 1777946700 | 11.11° C | - | 1008 hPa | 0 mm | 0.45 m/s, 231° | - | - |
| 1777946399 | 11.67° C | - | 1011.5 hPa | 0 mm | 0 m/s | - | - |
| 1777946099 | 11.11° C | - | 1007.6 hPa | 0 mm | 0 m/s | - | - |
| 1777945798 | 10.56° C | - | 1010.7 hPa | 0 mm | 0 m/s | - | - |
| 1777945498 | 11.11° C | - | 1011.4 hPa | 0 mm | 0 m/s | - | - |
| 1777945197 | 11.67° C | - | 1010.5 hPa | 0 mm | 0.45 m/s, 118° | - | - |
| 1777944897 | 10.56° C | - | 1007 hPa | 0 mm | 0 m/s | - | - |
| 1777944596 | 11.67° C | - | 1009.3 hPa | 0 mm | 0 m/s | - | - |
* Rain since midnight (hover to see other rain measurements)
** Current wind speed in m/s (hover to see current wind gust speed)